Regional Weather Roundup
Issued by NWS Bismarck, ND

Home | Current Version | Previous Version | Text Only | Print | Product List | Glossary On
Versions: 1 2 3 4 5 6 7 8 9 10 11 12 13 14 15 16 17 18 19 20 21 22 23 24 25 26 27 28 29 30 31 32 33 34 35 36 37 38 39 40 41 42 43 44 45 46 47 48 49 50
000
ASUS43 KBIS 310002
RWRBIS

NWR BROADCAST TEXT
NATIONAL WEATHER SERVICE BISMARCK ND
700 PM CDT MON MAY 30 2016

NOTE: "FAIR" INDICATES FEW OR NO CLOUDS BELOW 12,000 FEET WITH NO
SIGNIFICANT WEATHER AND/OR OBSTRUCTIONS TO VISIBILITY.


CITY           SKY/WX    TMP DP  RH WIND       PRES   REMARKS
WILLISTON      CLOUDY    56  52  86 N9        29.91R
MINOT          LGT RAIN  61  55  81 W6        29.85S
MINOT AFB      NOT AVBL
BISMARCK       LGT RAIN  62  58  86 N10G17    29.80R
DICKINSON      CLOUDY    59  53  80 N6        29.87R
GARRISON         N/A     56  54  93 NE8       29.85S
HETTINGER ARPT CLOUDY    64  56  75 NW18      29.89R
JAMESTOWN      LGT RAIN  62  57  83 NE24G30   29.77F
CARRINGTON     FAIR      63  55  77 NE14G22   29.83F
HAZEN          LGT RAIN  55  54  94 NE9       29.87F
OAKES            N/A    N/A N/A N/A MISG        N/A
STANLEY        FAIR      57  57 100 N9        29.88F
$$

CITY           SKY/WX    TMP DP  RH WIND       PRES   REMARKS
GRAND FORKS    CLOUDY    64  55  72 NE16      29.82F
GRAND FORKS AF NOT AVBL
DEVILS LAKE    HVY RAIN  61  56  83 S6        29.89R
FARGO          CLOUDY    82  48  30 SE12G22   29.76S
CAVALIER       FAIR      66  55  68 S8        29.84F
GRAFTON        CLOUDY    64  57  77 NE7G16    29.85S
GWINNER        FAIR      81  54  39 SE12      29.75F
LANGDON        FAIR      66  52  59 SE8G15    29.87R
$$

CITY           SKY/WX    TMP DP  RH WIND       PRES   REMARKS
ABERDEEN       CLOUDY    80  58  46 S10       29.74F
MOBRIDGE       TSTM      59  55  87 VRB7      29.71F
BUFFALO          N/A     59  45  59 NW33G45   29.86R
RAPID CITY     CLOUDY    69  46  43 N26G36    29.87R
GLASGOW        CLOUDY    57  42  57 W23G35    29.96R
SIDNEY         CLOUDY    55  54  94 N14       29.91F
WOLF POINT     CLOUDY    58  50  75 NW6       29.94F
GLENDIVE       CLOUDY    54  48  82 NW13G21   29.97R
MILES CITY     CLOUDY    61  40  45 NW23G31   29.99R
BAKER          PTSUNNY   55  47  74 NW15G30   29.96S
$$

CITY           SKY/WX    TMP DP  RH WIND       PRES   REMARKS
BILLINGS       PTSUNNY   62  38  40 NE13      30.07R
GREAT FALLS    CLOUDY    58  34  40 NW14G26   30.13R
$$





USA.gov is the U.S. government's official web portal to all federal, state and local government web resources and services.